CW8969 Weather Reports


Display with metric or nautical units.
time (UTC)temp
F
wind
direction
speed
MPH
gust
MPH
rain 1hr
in
rain 24hr
in
rain mn
in
humidity
%
barometer
mb
20200707151405 87 225 1.0 1.0 0.00 0.01 0.01 69 994.2
20200707150904 85 202 0.0 0.0 0.00 0.01 0.01 72 994.1
20200707150404 86 202 1.0 2.0 0.00 0.01 0.01 72 994.1
20200707145905 86 209 1.0 1.0 0.00 0.01 0.01 70 994.1
20200707145405 86 227 1.0 2.0 0.00 0.01 0.01 70 994.1
20200707144904 87 202 1.0 1.0 0.00 0.01 0.01 71 994.0
20200707144405 86 253 2.0 2.0 0.00 0.01 0.01 71 994.0
20200707143905 84 192 1.0 2.0 0.00 0.01 0.01 74 994.0
20200707143405 84 202 1.0 2.0 0.00 0.01 0.01 73 993.9
20200707142905 84 192 1.0 1.0 0.00 0.01 0.01 75 993.9
20200707142404 82 248 1.0 2.0 0.00 0.01 0.01 78 993.9
20200707141904 83 228 1.0 1.0 0.00 0.01 0.01 77 993.9
20200707141404 82 146 1.0 1.0 0.00 0.01 0.01 83 993.9
20200707140904 80 220 2.0 2.0 0.00 0.01 0.01 86 994.0
20200707140404 80 119 0.0 1.0 0.00 0.01 0.01 90 994.0
20200707135905 79 9 0.0 1.0 0.00 0.01 0.01 93 994.0
20200707135405 78 126 0.0 1.0 0.00 0.01 0.01 93 994.0
20200707134905 78 194 1.0 2.0 0.00 0.01 0.01 94 993.8
20200707134404 78 297 2.0 2.0 0.00 0.01 0.01 94 993.8
20200707133904 77 238 0.0 1.0 0.00 0.01 0.01 99 993.8
20200707133405 77 206 1.0 1.0 0.00 0.01 0.01 98 993.8
20200707132904 77 239 1.0 2.0 0.00 0.01 0.01 99 993.8
20200707132404 76 259 0.0 3.0 0.00 0.01 0.01 99 993.8
20200707131904 75 90 2.0 3.0 0.00 0.01 0.01 99 993.8
20200707131405 74 199 2.0 2.0 0.00 0.01 0.01 99 993.8
20200707130904 73 173 1.0 2.0 0.00 0.01 0.01 99 993.7
20200707130405 73 238 0.0 1.0 0.00 0.01 0.01 99 993.7
20200707125904 73 154 0.0 1.0 0.00 0.01 0.01 99 993.6
20200707125405 73 147 0.0 2.0 0.00 0.01 0.01 99 993.6
20200707124904 72 183 1.0 2.0 0.00 0.01 0.01 99 993.5
20200707124405 71 180 0.0 0.0 0.00 0.01 0.01 99 993.5
20200707123904 71 180 0.0 0.0 0.00 0.01 0.01 99 993.5
20200707123405 71 158 0.0 0.0 0.00 0.01 0.01 99 993.5
20200707122905 70 158 0.0 0.0 0.00 0.01 0.01 99 993.5
20200707122405 70 180 0.0 0.0 0.00 0.01 0.01 99 993.5
20200707121904 69 180 0.0 0.0 0.00 0.01 0.01 99 993.5
20200707121405 69 202 0.0 0.0 0.00 0.01 0.01 99 993.5
20200707120905 69 180 0.0 0.0 0.00 0.01 0.01 99 993.3
20200707120405 69 180 0.0 0.0 0.00 0.01 0.01 99 993.3
20200707115905 69 180 0.0 0.0 0.00 0.01 0.01 99 993.3
20200707115405 68 180 0.0 0.0 0.00 0.01 0.01 99 993.3
20200707114904 68 180 0.0 0.0 0.00 0.01 0.01 99 993.2
20200707114404 68 180 0.0 0.0 0.00 0.01 0.01 99 993.2
20200707113905 68 202 0.0 0.0 0.00 0.01 0.01 99 993.2
20200707113405 68 190 0.0 0.0 0.00 0.01 0.01 99 993.0
20200707112904 68 180 0.0 0.0 0.00 0.01 0.01 99 993.0
20200707112404 68 180 0.0 0.0 0.00 0.01 0.01 99 992.8
20200707111904 68 202 0.0 0.0 0.00 0.01 0.01 99 992.8
20200707111405 67 202 0.0 0.0 0.00 0.01 0.01 99 992.8
20200707110905 67 180 0.0 0.0 0.00 0.01 0.01 99 992.8
20200707110404 67 171 0.0 0.0 0.00 0.01 0.01 99 992.8
20200707105904 67 180 0.0 0.0 0.00 0.01 0.01 99 992.8
20200707105404 67 180 0.0 0.0 0.00 0.01 0.01 99 992.8
20200707104905 67 180 0.0 0.0 0.00 0.01 0.01 99 992.7
20200707104404 67 180 0.0 0.0 0.00 0.01 0.01 99 992.7
20200707103904 67 180 0.0 0.0 0.00 0.01 0.01 99 992.7
20200707103404 67 180 0.0 0.0 0.00 0.01 0.01 99 992.8
20200707102905 67 180 0.0 0.0 0.00 0.01 0.01 99 992.8
20200707102406 67 180 0.0 0.0 0.00 0.01 0.01 99 992.7
20200707101905 67 180 0.0 0.0 0.00 0.01 0.01 99 992.7
20200707101405 68 180 0.0 0.0 0.00 0.01 0.01 99 992.7
20200707100904 68 180 0.0 0.0 0.00 0.01 0.01 99 992.6
20200707100404 68 180 0.0 0.0 0.00 0.01 0.01 99 992.6
20200707095904 68 180 0.0 0.0 0.00 0.01 0.01 99 992.6
20200707095404 68 180 0.0 0.0 0.00 0.01 0.01 99 992.6
20200707094904 68 180 0.0 0.0 0.00 0.01 0.01 99 992.5
20200707094404 68 180 0.0 0.0 0.00 0.01 0.01 99 992.5
20200707093904 68 180 0.0 0.0 0.00 0.01 0.01 99 992.5
20200707093405 68 180 0.0 0.0 0.00 0.01 0.01 99 992.4
20200707092904 68 180 0.0 0.0 0.00 0.01 0.01 99 992.4
20200707092405 68 180 0.0 0.0 0.00 0.01 0.01 99 992.2
20200707091914 68 225 0.0 0.0 0.00 0.01 0.01 99 992.2
20200707091405 68 180 0.0 0.0 0.00 0.01 0.01 99 992.2
20200707090904 68 180 0.0 0.0 0.00 0.01 0.01 99 992.1
20200707090404 68 180 0.0 0.0 0.00 0.01 0.01 99 992.1
20200707085905 68 138 0.0 0.0 0.00 0.01 0.01 99 992.1
20200707085405 68 180 0.0 0.0 0.00 0.01 0.01 99 992.1
20200707084905 69 180 0.0 0.0 0.00 0.01 0.01 99 992.0
20200707084404 68 189 0.0 0.0 0.00 0.01 0.01 99 992.0
20200707083904 69 180 0.0 0.0 0.01 0.01 0.01 99 992.0
20200707083404 69 180 0.0 0.0 0.01 0.01 0.01 99 992.0
20200707082904 69 202 0.0 0.0 0.01 0.01 0.01 99 992.0
20200707082404 69 158 0.0 0.0 0.01 0.01 0.01 99 992.2
20200707081905 69 202 0.0 2.0 0.01 0.01 0.01 99 992.2
20200707081404 69 180 1.0 1.0 0.01 0.01 0.01 99 992.2
20200707080904 69 158 0.0 0.0 0.01 0.01 0.01 99 992.1
20200707080405 69 158 0.0 0.0 0.01 0.01 0.01 99 992.1
20200707075904 69 158 0.0 0.0 0.01 0.01 0.01 99 992.1
20200707075404 69 158 0.0 0.0 0.01 0.01 0.01 99 992.1
20200707074905 69 155 0.0 0.0 0.01 0.01 0.01 99 992.1
20200707074404 69 180 0.0 0.0 0.01 0.01 0.01 99 992.2
20200707073904 69 180 0.0 0.0 0.00 0.00 0.00 99 992.2
20200707073405 69 180 0.0 0.0 0.00 0.00 0.00 99 992.3
20200707072905 69 180 0.0 0.0 0.00 0.00 0.00 99 992.3
20200707072404 69 180 0.0 0.0 0.00 0.00 0.00 99 992.3
20200707071904 69 180 0.0 0.0 0.00 0.00 0.00 99 992.3
20200707071405 69 180 0.0 0.0 0.00 0.00 0.00 99 992.3
20200707070904 69 180 0.0 0.0 0.00 0.00 0.00 99 992.5
20200707070404 69 180 0.0 0.0 0.00 0.00 0.00 99 992.5
20200707065904 69 180 0.0 0.0 0.00 0.00 0.00 99 992.5
20200707065404 69 180 0.0 0.0 0.00 0.00 0.00 99 992.5
20200707064904 69 180 0.0 0.0 0.00 0.00 0.00 99 992.5
20200707064404 69 180 0.0 0.0 0.00 0.00 0.00 99 992.5
20200707063904 69 169 0.0 0.0 0.00 0.00 0.00 99 992.5
20200707063404 70 158 0.0 0.0 0.00 0.00 0.00 99 992.5
20200707062904 70 180 0.0 0.0 0.00 0.00 0.00 99 992.5
20200707062405 70 180 0.0 0.0 0.00 0.00 0.00 99 992.7
20200707061904 70 180 0.0 0.0 0.00 0.00 0.00 99 992.7
20200707061404 70 172 0.0 0.0 0.00 0.00 0.00 99 992.7
20200707060904 70 180 0.0 0.0 0.00 0.00 0.00 99 992.8
20200707060404 70 180 0.0 0.0 0.00 0.00 0.00 99 992.8
20200707055904 70 180 0.0 0.0 0.00 0.00 0.00 99 993.0
20200707055404 70 180 0.0 0.0 0.00 0.00 0.00 99 993.0
20200707054904 70 180 0.0 0.0 0.00 0.00 0.00 99 993.0
20200707054404 70 149 0.0 0.0 0.00 0.00 0.00 99 992.9
20200707053904 71 180 0.0 0.0 0.00 0.00 0.00 99 992.9
20200707053405 71 112 0.0 0.0 0.00 0.00 0.00 99 992.9
20200707052904 71 112 0.0 0.0 0.00 0.00 0.00 99 992.9
20200707052404 71 112 0.0 0.0 0.00 0.00 0.00 99 993.1
20200707051904 71 112 0.0 0.0 0.00 0.00 0.00 99 993.1
20200707051405 71 112 0.0 0.0 0.00 0.00 0.00 99 993.1
20200707050904 71 168 0.0 0.0 0.00 0.00 0.00 99 993.0
20200707050405 71 180 0.0 0.0 0.00 0.00 0.00 99 993.0
20200707045904 71 158 0.0 0.0 0.00 0.00 0.00 99 993.1
20200707045404 71 180 0.0 0.0 0.00 0.00 0.00 99 993.1
20200707044904 71 180 0.0 0.0 0.00 0.00 0.00 99 993.2
20200707044404 71 180 0.0 0.0 0.00 0.00 0.00 99 993.2
20200707043904 71 180 0.0 0.0 0.00 0.00 0.00 99 993.2
20200707043404 71 180 0.0 0.0 0.00 0.00 0.00 99 993.1
20200707042904 71 168 0.0 0.0 0.00 0.00 0.00 99 993.1
20200707042405 71 160 0.0 0.0 0.00 0.00 0.00 99 993.3
20200707041904 72 180 0.0 0.0 0.00 0.00 0.00 99 993.3
20200707041404 72 180 0.0 0.0 0.00 0.00 0.00 99 993.3
20200707040904 72 180 0.0 0.0 0.00 0.00 0.00 99 993.3
20200707040405 72 180 0.0 0.0 0.00 0.00 0.00 99 993.3
20200707035905 72 169 0.0 0.0 0.00 0.00 0.00 99 993.2
20200707035404 72 171 0.0 0.0 0.00 0.00 0.00 99 993.2
20200707034904 72 180 0.0 0.0 0.00 0.00 0.00 99 993.4
20200707034404 72 158 0.0 1.0 0.00 0.00 0.00 99 993.4
20200707033904 72 135 1.0 2.0 0.00 0.00 0.00 99 993.4
20200707033404 72 135 0.0 0.0 0.00 0.00 0.00 98 993.1
20200707032905 72 135 0.0 0.0 0.00 0.00 0.00 97 993.1
20200707032404 72 135 0.0 0.0 0.00 0.00 0.00 96 992.9
20200707031905 72 135 0.0 0.0 0.00 0.00